KI5NYZ Weather Reports


Display with metric or nautical units.
time (UTC)temp
F
wind
direction
speed
MPH
gust
MPH
rain 1hr
in
rain 24hr
in
rain mn
in
humidity
%
barometer
mb
20260505223521 79 284 11.0 18.0 0.01 0.02 0.01 22 1007.7
20260505222522 79 277 12.0 18.0 0.01 0.01 0.01 22 1007.8
20260505221542 79 277 11.0 18.0 0.00 0.01 0.01 23 1007.8
20260505220519 79 274 11.0 19.0 0.00 0.01 0.00 23 1007.9
20260505215518 79 280 11.0 14.0 0.00 0.01 0.00 24 1008.1
20260505214539 79 267 9.0 13.0 0.00 0.02 0.00 25 1008.1
20260505213519 79 270 11.0 17.0 0.00 0.03 0.00 24 1008.3
20260505212521 79 271 9.0 13.0 0.00 0.03 0.00 24 1008.2
20260505211541 80 274 12.0 16.0 0.00 0.04 0.00 24 1008.1
20260505210520 81 269 11.0 18.0 0.00 0.05 0.00 23 1008.0
20260505205521 80 264 9.0 13.0 0.00 0.06 0.00 22 1008.3
20260505204520 80 275 8.0 13.0 0.00 0.06 0.00 22 1008.3
20260505203521 81 259 8.0 14.0 0.00 0.06 0.00 22 1008.5
20260505202525 81 262 8.0 13.0 0.00 0.06 0.00 23 1008.7
20260505201521 81 256 9.0 17.0 0.00 0.06 0.00 23 1008.7
20260505200540 80 253 8.0 12.0 0.00 0.06 0.00 23 1008.7
20260505195522 80 249 6.0 11.0 0.00 0.06 0.00 24 1008.6
20260505194521 80 253 6.0 11.0 0.00 0.06 0.00 24 1008.8
20260505193528 80 274 8.0 12.0 0.00 0.06 0.00 24 1008.8
20260505192541 80 269 6.0 12.0 0.00 0.06 0.00 24 1008.7
20260505191521 80 282 7.0 12.0 0.00 0.06 0.00 24 1008.8
20260505190522 81 270 7.0 12.0 0.00 0.06 0.00 23 1008.9
20260505185518 81 285 6.0 9.0 0.00 0.06 0.00 23 1008.9
20260505184519 81 284 7.0 11.0 0.00 0.06 0.00 23 1009.1
20260505183519 81 276 8.0 11.0 0.00 0.06 0.00 23 1009.1
20260505182520 81 292 6.0 9.0 0.00 0.06 0.00 23 1009.1
20260505181520 81 280 6.0 10.0 0.00 0.06 0.00 23 1009.2
20260505180546 80 299 7.0 12.0 0.00 0.06 0.00 23 1009.3
20260505175519 81 297 7.0 11.0 0.00 0.06 0.00 22 1009.3
20260505174520 80 309 8.0 12.0 0.00 0.06 0.00 22 1009.2
20260505173539 80 297 8.0 13.0 0.00 0.06 0.00 23 1009.4
20260505172525 80 315 7.0 12.0 0.00 0.06 0.00 22 1009.3
20260505171520 79 323 7.0 13.0 0.00 0.06 0.00 22 1009.2
20260505170542 79 309 9.0 15.0 0.00 0.06 0.00 22 1009.3
20260505165521 79 320 9.0 13.0 0.00 0.06 0.00 22 1009.2
20260505164521 78 328 10.0 14.0 0.00 0.06 0.00 23 1009.2
20260505163520 78 325 10.0 15.0 0.00 0.06 0.00 23 1009.1
20260505162523 78 340 8.0 13.0 0.00 0.06 0.00 23 1009.2
20260505161521 78 327 10.0 15.0 0.00 0.06 0.00 23 1009.2
20260505160523 77 325 9.0 15.0 0.00 0.06 0.00 23 1009.1
20260505152519 75 320 8.0 12.0 0.00 0.06 0.00 26 1008.8
20260505151519 75 316 8.0 16.0 0.00 0.06 0.00 26 1008.9
20260505150520 74 322 7.0 11.0 0.00 0.06 0.00 28 1008.8
20260505140520 69 307 10.0 14.0 0.00 0.06 0.00 38 1008.5
20260505124523 65 246 9.0 12.0 0.00 0.06 0.00 45 1007.8
20260505123522 65 275 6.0 11.0 0.00 0.06 0.00 44 1007.2
20260505122519 64 259 6.0 10.0 0.00 0.06 0.00 45 1007.4
20260505121519 63 257 5.0 9.0 0.00 0.06 0.00 47 1007.4
20260505120519 63 244 5.0 7.0 0.00 0.06 0.00 50 1007.5
20260505115519 63 236 4.0 6.0 0.00 0.06 0.00 51 1007.3
20260505114520 64 256 4.0 6.0 0.00 0.06 0.00 47 1007.4
20260505113519 64 273 4.0 6.0 0.00 0.06 0.00 45 1007.1
20260505112532 64 304 1.0 3.0 0.00 0.06 0.00 44 1006.8
20260505111519 64 313 3.0 5.0 0.00 0.06 0.00 45 1007.1
20260505110540 64 309 2.0 4.0 0.00 0.06 0.00 46 1007.2
20260505101524 64 259 4.0 7.0 0.00 0.06 0.00 46 1006.3
20260505100541 64 255 7.0 11.0 0.00 0.06 0.00 45 1006.3
20260505095603 65 255 9.0 12.0 0.00 0.06 0.00 42 1006.3
20260505094521 64 256 9.0 13.0 0.00 0.06 0.00 43 1006.2
20260505093523 64 253 8.0 12.0 0.00 0.06 0.00 44 1006.4
20260505092522 64 251 6.0 9.0 0.00 0.06 0.00 43 1006.4
20260505091522 65 264 6.0 8.0 0.00 0.06 0.00 42 1006.3
20260505090522 66 269 6.0 10.0 0.00 0.06 0.00 39 1006.4
20260505085520 65 277 5.0 11.0 0.00 0.06 0.00 39 1006.5
20260505084520 64 292 4.0 5.0 0.00 0.06 0.00 44 1006.6
20260505083519 64 278 3.0 9.0 0.00 0.06 0.00 44 1006.5
20260505082519 64 249 4.0 7.0 0.00 0.06 0.00 45 1006.3
20260505081520 64 240 4.0 6.0 0.00 0.06 0.00 44 1006.3
20260505080519 64 280 3.0 4.0 0.00 0.06 0.00 44 1006.4
20260505075520 63 269 4.0 7.0 0.00 0.06 0.00 44 1006.4
20260505074522 63 294 2.0 3.0 0.00 0.06 0.00 46 1006.3
20260505073519 64 340 6.0 9.0 0.00 0.06 0.00 44 1006.6
20260505072520 65 276 3.0 5.0 0.00 0.06 0.00 41 1006.6
20260505071521 66 269 4.0 7.0 0.00 0.06 0.00 39 1006.7
20260505070520 67 275 5.0 7.0 0.00 0.06 0.00 37 1007.0
20260505065525 68 256 4.0 6.0 0.00 0.06 0.00 36 1007.0
20260505064521 68 257 4.0 6.0 0.00 0.06 0.00 34 1007.0
20260505063521 68 256 4.0 7.0 0.00 0.06 0.00 34 1006.9
20260505062542 68 251 4.0 6.0 0.00 0.06 0.00 35 1007.0
20260505061522 69 242 4.0 6.0 0.00 0.06 0.00 34 1006.9
20260505060525 69 253 4.0 6.0 0.00 0.06 0.00 34 1007.1
20260505054519 69 250 4.0 5.0 0.00 0.06 0.00 33 1007.3
20260505053541 69 258 4.0 5.0 0.00 0.06 0.00 32 1007.3
20260505052519 69 261 4.0 6.0 0.00 0.06 0.00 32 1007.4
20260505051540 69 254 3.0 5.0 0.00 0.06 0.00 32 1007.3
20260505050521 70 250 3.0 6.0 0.00 0.06 0.00 31 1007.2
20260505041540 73 261 7.0 12.0 0.00 0.06 0.06 26 1007.3
20260505040601 73 251 10.0 13.0 0.00 0.06 0.06 25 1007.3
20260505035520 73 246 10.0 15.0 0.00 0.06 0.06 25 1007.3
20260505034521 73 246 10.0 15.0 0.00 0.06 0.06 25 1007.3
20260505033541 73 247 9.0 14.0 0.00 0.06 0.06 24 1007.2
20260505032541 73 244 9.0 14.0 0.00 0.06 0.06 24 1007.2
20260505031522 74 242 10.0 14.0 0.00 0.06 0.06 23 1007.0
20260505030521 74 251 8.0 16.0 0.00 0.06 0.06 22 1006.8
20260505025519 75 257 7.0 12.0 0.00 0.06 0.06 22 1006.8
20260505024518 75 275 6.0 12.0 0.00 0.06 0.06 21 1006.7
20260505023519 76 270 4.0 7.0 0.00 0.06 0.06 21 1006.6
20260505022540 77 284 5.0 7.0 0.00 0.06 0.06 19 1006.5
20260505021519 78 284 7.0 9.0 0.00 0.06 0.06 19 1006.4
20260505020540 78 285 7.0 10.0 0.00 0.06 0.06 18 1006.4
20260505015522 78 288 7.0 11.0 0.00 0.06 0.06 18 1006.3
20260505014519 79 289 6.0 8.0 0.00 0.06 0.06 18 1006.3
20260505013525 79 279 7.0 11.0 0.00 0.06 0.06 17 1006.2
20260505012520 80 276 7.0 9.0 0.00 0.06 0.06 18 1006.1
20260505011519 81 269 4.0 7.0 0.00 0.06 0.06 17 1006.1
20260505010521 82 269 8.0 12.0 0.00 0.06 0.06 16 1006.0
20260505005520 82 271 9.0 14.0 0.00 0.06 0.06 15 1006.0
20260505004640 83 268 8.0 12.0 0.00 0.06 0.06 16 1006.1
20260505003523 83 258 7.0 12.0 0.00 0.06 0.06 17 1006.2
20260505002520 84 260 7.0 13.0 0.00 0.06 0.06 17 1006.3
20260505001601 84 262 7.0 11.0 0.00 0.06 0.06 18 1006.3
20260505000523 84 264 8.0 11.0 0.00 0.06 0.06 18 1006.5
20260504235521 84 255 9.0 13.0 0.00 0.06 0.06 18 1006.4
20260504234522 85 267 10.0 15.0 0.00 0.06 0.06 18 1006.5
20260504233522 85 263 10.0 16.0 0.00 0.06 0.06 18 1006.6
20260504232522 84 264 11.0 15.0 0.00 0.06 0.06 17 1006.7
20260504231522 84 264 10.0 14.0 0.00 0.06 0.06 18 1006.8
20260504230519 83 269 12.0 17.0 0.01 0.06 0.06 19 1007.0
20260504225548 83 256 11.0 17.0 0.01 0.06 0.06 20 1007.0
20260504224519 83 252 11.0 16.0 0.02 0.06 0.06 21 1007.1